This is the latest recevied weather packets stored in our database for station/object KK6LZB. If no packets are shown the sender has not sent any weather packets the latest 10 day(s).
| Time | Temp. | Humidity | Pressure | Rain* | Wind** | Luminosity | Snow |
|---|---|---|---|---|---|---|---|
| 1777997952 | 16.67° C | 76% | 1016.2 hPa | 0 mm | - | 405 W/m² | - |
| 1777997649 | 16.11° C | 79% | 1016.5 hPa | 0 mm | - | 352 W/m² | - |
| 1777997347 | 16.11° C | 79% | 1016.4 hPa | 0 mm | - | 187 W/m² | - |
| 1777997045 | 16.11° C | 80% | 1016.5 hPa | 0 mm | - | 155 W/m² | - |
| 1777996741 | 15.56° C | 81% | 1016.2 hPa | 0 mm | - | 156 W/m² | - |
| 1777996437 | 15° C | 82% | 1016.5 hPa | 0 mm | - | 120 W/m² | - |
| 1777996134 | 15° C | 84% | 1016.4 hPa | 0 mm | - | 101 W/m² | - |
| 1777995830 | 15° C | 82% | 1016.2 hPa | 0 mm | - | 97 W/m² | - |
| 1777995526 | 15° C | 84% | 1016.5 hPa | 0 mm | - | 144 W/m² | - |
| 1777995223 | 15° C | 83% | 1016.5 hPa | 0 mm | - | 115 W/m² | - |
| 1777994920 | 15° C | 84% | 1016.3 hPa | 0 mm | - | 108 W/m² | - |
| 1777994618 | 14.44° C | 85% | 1016.2 hPa | 0 mm | - | 91 W/m² | - |
| 1777994317 | 14.44° C | 85% | 1016.4 hPa | 0 mm | - | 80 W/m² | - |
| 1777994014 | 14.44° C | 85% | 1016.2 hPa | 0 mm | - | 77 W/m² | - |
| 1777993712 | 14.44° C | 86% | 1016.2 hPa | 0 mm | - | 78 W/m² | - |
| 1777993409 | 14.44° C | 87% | 1016.4 hPa | 0 mm | - | 76 W/m² | - |
| 1777993109 | 13.89° C | 90% | 1016.3 hPa | 0 mm | - | 77 W/m² | - |
| 1777992807 | 13.33° C | 92% | 1016.2 hPa | 0 mm | - | 61 W/m² | - |
| 1777992504 | 13.33° C | 93% | 1016.1 hPa | 0 mm | - | 55 W/m² | - |
| 1777992203 | 12.78° C | 93% | 1016.2 hPa | 0 mm | - | 48 W/m² | - |
| 1777991899 | 12.78° C | 93% | 1016.2 hPa | 0 mm | - | 41 W/m² | - |
| 1777991598 | 12.78° C | 94% | 1016.1 hPa | 0 mm | - | 38 W/m² | - |
| 1777991294 | 12.78° C | 94% | 1016.2 hPa | 0 mm | - | 38 W/m² | - |
| 1777990992 | 12.78° C | 94% | 1016 hPa | 0 mm | - | 31 W/m² | - |
| 1777990689 | 12.78° C | 94% | 1016 hPa | 0 mm | - | 28 W/m² | - |
* Rain latest hour (hover to see other rain measurements)
** Current wind speed in m/s (hover to see current wind gust speed)